RH
16 19 18 22 23 24 27 28 25 35 46 49 48 54 60 66 66 58 64 68 64 65 67 72 77 73 73 69 66 62 55 48 41 35 29 21 16 12 14 16 16 17 18 19 20 20 21 24 27
15 16 22 24 23 25 27 30 34 45 49 46 46 52 62 72 71 70 71 71 69 75 75 71 72 76 73 68 70 63 55 47 40 35 31 21 16 14 15 17 19 20 20 21 22 23 23 25 29
16 18 27 25 24 25 27 40 55 55 48 47 49 54 62 71 72 70 68 71 75 78 75 76 73 71 74 74 71 63 52 44 40 35 24 23 18 16 19 20 22 21 21 22 23 25 27 29 30
18 25 27 22 23 27 26 32 47 48 49 49 51 57 61 65 63 66 71 67 69 74 75 74 75 80 82 77 73 62 50 45 39 30 26 23 20 24 24 24 22 22 23 25 27 31 33 33 34
25 25 24 24 28 33 42 44 45 55 63 66 62 62 65 66 62 65 75 84 81 80 86 86 90 89 91 86 75 60 52 47 40 36 29 28 24 23 24 23 23 25 28 31 32 33 35 34 33
27 26 27 28 29 45 54 63 64 67 70 68 62 62 69 71 69 70 75 88 97 94 92 91 97 97 94 88 73 62 58 46 32 28 27 23 22 23 24 25 27 31 32 34 34 37 43 44 44
30 31 33 31 34 34 52 59 68 62 69 68 62 66 73 73 76 77 78 96 98 99 99 99 98 91 90 85 77 64 46 34 25 18 17 19 22 24 26 28 32 35 35 38 44 49 51 51 52
32 33 35 35 37 57 61 59 59 60 64 65 68 64 71 73 72 78 85 91 92 98 98 93 92 86 81 78 63 47 33 21 12 17 22 23 28 28 32 36 36 41 46 51 56 59 56 57 59
40 37 38 36 51 56 54 58 57 60 63 68 67 62 69 70 73 78 87 96 95 91 96 84 85 90 81 64 51 39 33 26 26 29 29 32 34 37 38 38 45 48 52 55 57 59 61 63 67
38 32 36 41 52 47 49 56 58 62 62 68 72 74 80 75 81 87 81 77 84 85 88 79 74 68 61 50 36 26 21 25 28 29 29 32 40 47 47 52 52 55 57 59 58 61 62 65 65
35 31 40 45 44 46 51 56 60 64 69 69 73 77 81 86 82 78 69 75 68 82 79 72 65 57 49 39 27 25 22 28 39 42 42 47 50 49 50 54 56 57 57 56 55 58 61 58 56
36 37 39 42 41 48 56 59 61 62 68 71 68 73 82 95 84 66 44 48 53 56 61 53 49 43 32 26 23 26 36 44 49 48 46 50 52 51 52 54 54 53 52 49 52 57 56 49 45
38 39 38 46 53 54 56 58 62 58 68 69 71 83 90 82 75 59 44 32 30 38 39 36 34 32 31 34 38 44 45 49 52 53 52 51 50 51 54 54 50 51 48 49 52 51 43 38 36
42 40 46 49 57 55 52 57 59 58 70 74 73 76 73 64 53 45 40 36 34 34 34 40 39 40 43 46 49 52 57 57 55 50 52 51 49 46 46 48 49 48 48 46 41 38 36 35 36
42 47 51 55 55 52 50 52 52 49 46 52 58 51 46 46 53 43 42 39 28 31 38 42 42 46 48 55 58 60 62 62 59 54 51 45 41 42 43 45 46 47 40 33 33 35 36 37 36
37 41 51 55 57 54 48 50 48 48 42 38 43 45 46 45 45 42 39 35 25 32 38 44 46 48 50 53 61 65 69 63 63 58 48 43 37 38 39 38 34 31 31 35 40 41 40 40 39
38 42 45 50 58 55 52 51 50 51 55 52 50 49 47 50 50 45 43 41 29 35 45 49 53 52 52 57 67 66 68 64 62 53 43 38 33 33 32 31 30 33 39 44 46 46 46 43 34
41 38 40 44 45 48 45 47 48 46 42 50 52 56 48 45 41 40 42 48 48 44 44 50 59 61 60 54 54 60 54 53 52 45 39 35 33 32 31 32 36 43 48 52 51 49 43 36 30
48 47 42 42 42 44 43 47 47 47 42 40 49 50 45 43 44 40 41 45 48 54 51 55 62 64 63 63 59 55 50 50 48 42 38 35 33 34 37 42 48 54 56 52 45 42 41 36 33
53 46 45 39 35 39 41 42 47 50 41 41 37 47 49 50 46 43 39 39 42 48 47 56 63 62 61 59 57 55 55 56 51 42 39 37 37 41 48 53 55 54 56 48 47 41 35 32 33
48 47 44 40 34 38 37 40 51 48 46 51 44 38 38 35 38 42 41 39 41 46 49 68 63 63 59 59 60 60 60 58 49 44 41 40 44 48 50 52 52 52 51 43 38 38 37 34 35
45 41 41 38 39 34 25 40 40 41 45 51 52 46 36 36 38 40 41 42 43 49 66 61 64 61 62 64 60 60 55 50 48 47 46 47 51 54 57 61 59 57 39 35 36 37 36 36 37
42 43 44 43 44 38 38 40 42 42 46 46 51 49 49 37 37 40 39 43 54 61 63 63 59 58 64 61 61 55 53 53 52 52 52 54 57 60 60 59 59 44 36 37 39 37 37 41 43
43 41 47 47 50 58 52 51 45 48 44 43 46 49 47 47 46 46 48 54 63 65 71 62 58 61 63 63 58 54 55 55 55 58 61 64 66 68 64 65 52 44 44 40 39 41 42 42 46
39 34 47 48 62 63 54 50 45 44 43 42 42 42 41 47 51 52 54 56 67 65 61 51 51 57 60 57 54 57 60 63 65 66 68 71 69 71 67 66 58 48 51 45 49 47 46 52 52
45 46 45 44 61 52 51 46 34 44 42 43 39 42 45 46 49 51 51 59 58 58 53 53 51 54 53 53 56 63 66 67 68 71 74 73 73 74 66 72 55 53 48 47 48 47 52 51 51
51 49 45 59 65 63 57 47 37 40 41 36 40 32 34 37 39 44 45 50 54 52 51 50 48 51 51 56 59 64 68 71 72 75 74 73 74 77 75 56 56 59 49 49 49 51 53 52 48
45 47 54 61 65 64 39 35 42 38 42 43 38 33 31 33 35 40 42 40 39 39 41 41 45 49 54 59 62 65 67 70 73 73 79 83 78 70 59 60 58 54 53 59 62 58 57 55 55
45 38 41 50 59 53 53 43 38 39 31 31 28 27 26 27 30 32 33 32 31 35 37 38 40 44 49 54 60 66 71 72 75 82 77 72 70 75 69 59 63 64 68 61 57 63 59 59 65
40 36 38 51 41 55 52 39 35 36 36 33 30 29 25 27 29 31 31 31 33 34 34 34 38 44 48 55 61 63 66 70 71 69 68 69 75 74 68 64 67 67 64 61 65 63 69 72 70